QPF
0.00 0.00 0.00 0.00 0.00 0.00 0.00 0.00 0.00 0.00 0.00 0.00 0.00 0.01 0.01 0.01 0.01 0.02 0.00 0.00 0.00 0.00 0.00 0.00 0.00 0.01 0.01 0.01 0.00 0.00 0.00 0.00 0.00 0.01 0.01 0.01 0.01 0.01 0.01 0.01 0.02 0.02 0.02 0.02 0.01 0.01 0.01 0.00 0.00
0.00 0.00 0.00 0.00 0.00 0.00 0.00 0.00 0.00 0.00 0.00 0.00 0.00 0.01 0.02 0.01 0.00 0.00 0.00 0.00 0.00 0.00 0.00 0.00 0.01 0.01 0.01 0.01 0.00 0.00 0.00 0.00 0.01 0.01 0.01 0.01 0.01 0.01 0.01 0.01 0.01 0.01 0.01 0.01 0.01 0.00 0.00 0.00 0.00
0.00 0.00 0.00 0.00 0.00 0.00 0.00 0.00 0.00 0.00 0.00 0.00 0.00 0.01 0.01 0.01 0.00 0.00 0.00 0.00 0.00 0.00 0.00 0.00 0.01 0.01 0.01 0.01 0.00 0.00 0.00 0.00 0.01 0.01 0.01 0.01 0.01 0.00 0.00 0.00 0.00 0.00 0.00 0.00 0.00 0.00 0.00 0.00 0.00
0.01 0.01 0.01 0.00 0.00 0.00 0.00 0.00 0.00 0.00 0.00 0.00 0.00 0.00 0.01 0.01 0.01 0.00 0.00 0.00 0.00 0.00 0.00 0.00 0.01 0.01 0.01 0.00 0.00 0.00 0.00 0.00 0.01 0.01 0.01 0.01 0.01 0.00 0.00 0.00 0.00 0.00 0.00 0.00 0.00 0.00 0.00 0.00 0.00
0.04 0.04 0.02 0.01 0.00 0.00 0.00 0.00 0.00 0.00 0.00 0.00 0.00 0.01 0.02 0.00 0.00 0.00 0.00 0.00 0.00 0.00 0.00 0.00 0.01 0.01 0.01 0.00 0.00 0.00 0.00 0.00 0.00 0.01 0.01 0.01 0.01 0.00 0.00 0.00 0.00 0.00 0.00 0.00 0.00 0.00 0.00 0.00 0.00
0.13 0.07 0.03 0.01 0.00 0.00 0.00 0.00 0.00 0.00 0.00 0.00 0.00 0.02 0.04 0.01 0.01 0.00 0.00 0.00 0.00 0.00 0.00 0.01 0.01 0.01 0.01 0.01 0.00 0.00 0.00 0.00 0.01 0.01 0.01 0.01 0.01 0.00 0.00 0.00 0.00 0.00 0.00 0.00 0.00 0.00 0.00 0.00 0.00
0.17 0.08 0.02 0.00 0.00 0.00 0.00 0.00 0.00 0.00 0.00 0.00 0.00 0.04 0.04 0.02 0.02 0.01 0.01 0.01 0.01 0.00 0.00 0.01 0.01 0.01 0.01 0.01 0.00 0.00 0.00 0.00 0.00 0.01 0.01 0.00 0.00 0.00 0.00 0.00 0.00 0.00 0.00 0.00 0.00 0.00 0.00 0.00 0.00
0.12 0.13 0.04 0.01 0.00 0.00 0.00 0.00 0.00 0.00 0.00 0.00 0.01 0.04 0.04 0.03 0.02 0.02 0.02 0.02 0.01 0.01 0.01 0.01 0.01 0.01 0.01 0.01 0.01 0.00 0.00 0.00 0.00 0.00 0.00 0.00 0.00 0.00 0.00 0.00 0.00 0.00 0.00 0.00 0.00 0.00 0.00 0.00 0.00
0.14 0.16 0.07 0.01 0.01 0.00 0.00 0.00 0.00 0.00 0.00 0.00 0.00 0.02 0.02 0.01 0.03 0.04 0.04 0.03 0.02 0.01 0.01 0.01 0.01 0.01 0.01 0.01 0.01 0.00 0.00 0.00 0.00 0.00 0.00 0.00 0.00 0.00 0.00 0.00 0.00 0.00 0.00 0.00 0.00 0.00 0.00 0.00 0.00
0.16 0.11 0.03 0.00 0.01 0.01 0.00 0.00 0.00 0.00 0.00 0.00 0.00 0.01 0.01 0.02 0.03 0.04 0.04 0.04 0.03 0.02 0.02 0.02 0.02 0.02 0.02 0.01 0.01 0.01 0.00 0.00 0.00 0.00 0.00 0.00 0.00 0.00 0.00 0.00 0.00 0.00 0.00 0.00 0.00 0.00 0.00 0.00 0.00
0.09 0.04 0.01 0.01 0.02 0.03 0.01 0.00 0.00 0.00 0.00 0.00 0.00 0.01 0.02 0.04 0.04 0.04 0.04 0.04 0.04 0.03 0.02 0.02 0.02 0.02 0.02 0.02 0.01 0.01 0.01 0.00 0.00 0.00 0.00 0.00 0.00 0.00 0.00 0.00 0.00 0.00 0.00 0.00 0.00 0.00 0.00 0.00 0.00
0.06 0.02 0.01 0.03 0.04 0.04 0.05 0.02 0.00 0.00 0.00 0.00 0.01 0.01 0.02 0.04 0.04 0.04 0.04 0.04 0.04 0.03 0.02 0.02 0.02 0.02 0.03 0.02 0.01 0.01 0.01 0.01 0.01 0.00 0.00 0.00 0.00 0.00 0.00 0.00 0.00 0.00 0.00 0.00 0.00 0.00 0.00 0.00 0.00
0.05 0.03 0.03 0.04 0.06 0.05 0.07 0.06 0.02 0.01 0.00 0.00 0.01 0.01 0.01 0.03 0.05 0.06 0.05 0.05 0.04 0.02 0.02 0.02 0.02 0.03 0.03 0.03 0.02 0.01 0.01 0.01 0.00 0.00 0.00 0.00 0.00 0.00 0.00 0.00 0.00 0.00 0.00 0.00 0.00 0.00 0.00 0.00 0.00
0.04 0.05 0.05 0.07 0.08 0.06 0.08 0.08 0.05 0.02 0.00 0.00 0.01 0.01 0.02 0.02 0.02 0.03 0.04 0.04 0.05 0.03 0.02 0.02 0.02 0.03 0.03 0.03 0.02 0.01 0.01 0.01 0.01 0.00 0.00 0.00 0.00 0.00 0.00 0.00 0.00 0.00 0.00 0.00 0.00 0.00 0.00 0.00 0.00
0.05 0.10 0.12 0.11 0.10 0.09 0.10 0.12 0.06 0.02 0.01 0.00 0.01 0.01 0.02 0.02 0.01 0.01 0.02 0.03 0.04 0.04 0.04 0.02 0.02 0.03 0.03 0.03 0.02 0.01 0.01 0.01 0.01 0.01 0.00 0.00 0.00 0.00 0.00 0.00 0.00 0.00 0.00 0.00 0.00 0.00 0.00 0.00 0.00
0.11 0.13 0.15 0.13 0.11 0.10 0.12 0.10 0.03 0.02 0.01 0.01 0.00 0.01 0.01 0.02 0.02 0.02 0.01 0.02 0.03 0.03 0.03 0.03 0.01 0.01 0.02 0.03 0.03 0.02 0.01 0.00 0.00 0.00 0.00 0.00 0.00 0.00 0.00 0.00 0.00 0.00 0.00 0.00 0.00 0.00 0.00 0.01 0.01
0.15 0.11 0.10 0.11 0.10 0.09 0.09 0.06 0.02 0.02 0.01 0.01 0.00 0.00 0.00 0.01 0.01 0.01 0.01 0.01 0.02 0.02 0.02 0.02 0.01 0.01 0.02 0.03 0.04 0.03 0.01 0.01 0.00 0.00 0.00 0.00 0.00 0.00 0.00 0.00 0.00 0.01 0.01 0.01 0.01 0.01 0.01 0.01 0.01
0.10 0.06 0.05 0.07 0.08 0.08 0.05 0.03 0.02 0.02 0.01 0.01 0.00 0.00 0.00 0.00 0.00 0.00 0.01 0.00 0.01 0.02 0.02 0.01 0.01 0.01 0.02 0.02 0.03 0.03 0.03 0.02 0.01 0.01 0.00 0.00 0.00 0.00 0.00 0.00 0.00 0.01 0.01 0.01 0.01 0.01 0.01 0.01 0.01
0.05 0.04 0.04 0.04 0.04 0.05 0.05 0.02 0.01 0.02 0.01 0.01 0.00 0.00 0.00 0.00 0.00 0.00 0.00 0.00 0.00 0.01 0.01 0.01 0.01 0.01 0.02 0.02 0.02 0.02 0.02 0.02 0.01 0.01 0.00 0.00 0.00 0.00 0.00 0.00 0.00 0.01 0.01 0.01 0.01 0.01 0.01 0.01 0.01
0.05 0.04 0.04 0.05 0.04 0.04 0.04 0.02 0.01 0.01 0.01 0.00 0.00 0.00 0.00 0.00 0.00 0.00 0.00 0.00 0.00 0.01 0.01 0.01 0.01 0.01 0.01 0.01 0.02 0.03 0.03 0.03 0.02 0.01 0.01 0.00 0.00 0.00 0.00 0.00 0.00 0.00 0.01 0.01 0.01 0.01 0.02 0.01 0.02
0.05 0.04 0.03 0.05 0.05 0.03 0.03 0.02 0.01 0.00 0.00 0.00 0.00 0.00 0.00 0.00 0.00 0.00 0.00 0.00 0.00 0.00 0.01 0.02 0.02 0.02 0.02 0.02 0.02 0.03 0.02 0.02 0.02 0.02 0.01 0.01 0.00 0.00 0.00 0.00 0.00 0.00 0.01 0.01 0.01 0.01 0.01 0.01 0.02
0.04 0.02 0.02 0.04 0.05 0.03 0.02 0.02 0.00 0.00 0.00 0.00 0.00 0.00 0.00 0.00 0.00 0.00 0.00 0.00 0.00 0.00 0.00 0.01 0.02 0.02 0.02 0.02 0.02 0.02 0.02 0.02 0.02 0.02 0.01 0.01 0.01 0.01 0.00 0.00 0.00 0.00 0.00 0.00 0.00 0.00 0.01 0.01 0.01
0.04 0.02 0.02 0.03 0.03 0.03 0.02 0.01 0.00 0.00 0.00 0.00 0.00 0.00 0.00 0.00 0.00 0.00 0.00 0.00 0.00 0.00 0.00 0.00 0.01 0.01 0.01 0.01 0.01 0.01 0.02 0.02 0.02 0.02 0.01 0.01 0.01 0.01 0.01 0.01 0.00 0.00 0.00 0.00 0.01 0.01 0.01 0.01 0.01
0.04 0.04 0.04 0.04 0.05 0.04 0.01 0.01 0.00 0.00 0.00 0.00 0.00 0.00 0.00 0.00 0.00 0.00 0.00 0.00 0.00 0.00 0.00 0.00 0.01 0.01 0.02 0.01 0.01 0.01 0.01 0.02 0.02 0.02 0.01 0.01 0.01 0.01 0.01 0.01 0.00 0.00 0.00 0.00 0.00 0.00 0.00 0.01 0.01
0.05 0.06 0.06 0.07 0.07 0.03 0.00 0.01 0.00 0.00 0.00 0.00 0.00 0.00 0.00 0.00 0.00 0.00 0.00 0.00 0.00 0.00 0.00 0.00 0.00 0.01 0.01 0.02 0.02 0.01 0.01 0.01 0.01 0.01 0.01 0.01 0.01 0.00 0.00 0.00 0.00 0.00 0.00 0.00 0.00 0.00 0.00 0.00 0.01
0.04 0.05 0.05 0.04 0.02 0.01 0.00 0.00 0.00 0.00 0.00 0.00 0.00 0.00 0.00 0.00 0.00 0.00 0.00 0.00 0.00 0.00 0.00 0.00 0.00 0.00 0.00 0.01 0.01 0.01 0.01 0.01 0.01 0.01 0.01 0.01 0.01 0.00 0.00 0.00 0.00 0.00 0.00 0.00 0.00 0.00 0.00 0.00 0.00
0.05 0.04 0.02 0.02 0.02 0.01 0.01 0.00 0.00 0.00 0.00 0.00 0.00 0.00 0.00 0.00 0.00 0.00 0.00 0.00 0.00 0.00 0.00 0.00 0.00 0.00 0.00 0.00 0.00 0.00 0.00 0.00 0.00 0.00 0.00 0.00 0.00 0.00 0.00 0.00 0.00 0.00 0.00 0.00 0.00 0.00 0.00 0.00 0.00
0.02 0.02 0.02 0.02 0.02 0.01 0.01 0.00 0.00 0.00 0.00 0.00 0.00 0.00 0.00 0.00 0.00 0.00 0.00 0.00 0.00 0.00 0.00 0.00 0.00 0.00 0.00 0.00 0.00 0.00 0.00 0.00 0.00 0.00 0.00 0.00 0.00 0.00 0.00 0.00 0.00 0.00 0.00 0.00 0.00 0.00 0.00 0.00 0.00
0.01 0.01 0.02 0.02 0.02 0.02 0.02 0.01 0.00 0.00 0.00 0.00 0.00 0.00 0.00 0.00 0.00 0.00 0.00 0.00 0.00 0.00 0.00 0.00 0.00 0.00 0.00 0.00 0.00 0.00 0.00 0.00 0.00 0.00 0.00 0.00 0.00 0.00 0.00 0.00 0.00 0.00 0.00 0.00 0.00 0.00 0.00 0.00 0.00
0.01 0.01 0.02 0.03 0.01 0.01 0.01 0.01 0.00 0.00 0.00 0.00 0.00 0.00 0.00 0.00 0.00 0.00 0.00 0.00 0.00 0.00 0.00 0.00 0.00 0.00 0.00 0.00 0.00 0.00 0.00 0.00 0.00 0.00 0.00 0.00 0.00 0.00 0.00 0.00 0.00 0.00 0.00 0.00 0.00 0.00 0.00 0.00 0.00
MSLP
1013.80 1014.18 1014.62 1015.02 1015.29 1015.36 1015.19 1014.80 1014.25 1013.62 1013.03 1012.55 1012.25 1012.13 1012.16 1012.28 1012.43 1012.57 1012.67 1012.75 1012.87 1013.06 1013.38 1013.84 1014.42 1015.05 1015.68 1016.21 1016.60 1016.85 1016.97 1017.02 1017.07 1017.18 1017.37 1017.66 1018.01 1018.36 1018.68 1018.92 1019.08 1019.17 1019.23 1019.29 1019.37 1019.50 1019.64 1019.76 1019.85
1014.10 1014.47 1014.81 1015.04 1015.08 1014.91 1014.53 1014.00 1013.39 1012.81 1012.33 1012.03 1011.91 1011.94 1012.08 1012.25 1012.40 1012.48 1012.52 1012.56 1012.65 1012.87 1013.25 1013.80 1014.47 1015.19 1015.86 1016.42 1016.83 1017.06 1017.17 1017.22 1017.28 1017.41 1017.64 1017.96 1018.33 1018.70 1019.02 1019.25 1019.40 1019.48 1019.54 1019.60 1019.70 1019.83 1019.97 1020.08 1020.13
1014.44 1014.75 1014.96 1014.98 1014.79 1014.39 1013.83 1013.19 1012.57 1012.06 1011.74 1011.63 1011.70 1011.91 1012.16 1012.38 1012.51 1012.55 1012.53 1012.52 1012.59 1012.82 1013.24 1013.85 1014.58 1015.35 1016.06 1016.64 1017.04 1017.27 1017.38 1017.43 1017.51 1017.67 1017.93 1018.27 1018.64 1019.00 1019.30 1019.50 1019.63 1019.70 1019.76 1019.84 1019.96 1020.10 1020.25 1020.35 1020.39
1014.75 1014.98 1015.03 1014.86 1014.46 1013.87 1013.17 1012.48 1011.88 1011.49 1011.35 1011.43 1011.70 1012.05 1012.40 1012.66 1012.78 1012.78 1012.70 1012.64 1012.69 1012.92 1013.36 1013.99 1014.76 1015.54 1016.26 1016.83 1017.22 1017.45 1017.56 1017.63 1017.74 1017.93 1018.21 1018.56 1018.93 1019.27 1019.54 1019.71 1019.81 1019.87 1019.94 1020.03 1020.18 1020.35 1020.52 1020.63 1020.66
1014.96 1015.09 1014.99 1014.65 1014.09 1013.37 1012.60 1011.91 1011.40 1011.15 1011.19 1011.46 1011.89 1012.37 1012.80 1013.08 1013.18 1013.13 1013.01 1012.91 1012.93 1013.15 1013.59 1014.23 1014.99 1015.77 1016.46 1017.01 1017.38 1017.59 1017.71 1017.80 1017.93 1018.16 1018.46 1018.83 1019.20 1019.52 1019.76 1019.91 1019.99 1020.04 1020.11 1020.23 1020.40 1020.61 1020.80 1020.92 1020.95
1015.00 1015.02 1014.80 1014.33 1013.67 1012.90 1012.14 1011.52 1011.13 1011.05 1011.25 1011.69 1012.25 1012.83 1013.29 1013.58 1013.66 1013.57 1013.40 1013.27 1013.27 1013.48 1013.91 1014.52 1015.26 1016.00 1016.65 1017.16 1017.49 1017.69 1017.81 1017.92 1018.09 1018.34 1018.68 1019.06 1019.44 1019.75 1019.97 1020.10 1020.17 1020.22 1020.30 1020.43 1020.63 1020.86 1021.07 1021.21 1021.23
1014.83 1014.73 1014.41 1013.88 1013.19 1012.45 1011.78 1011.28 1011.05 1011.13 1011.49 1012.05 1012.70 1013.32 1013.80 1014.08 1014.13 1014.01 1013.82 1013.67 1013.66 1013.85 1014.26 1014.85 1015.53 1016.22 1016.81 1017.27 1017.57 1017.75 1017.87 1018.00 1018.20 1018.49 1018.85 1019.25 1019.63 1019.94 1020.16 1020.28 1020.34 1020.40 1020.48 1020.63 1020.84 1021.08 1021.29 1021.43 1021.46
1014.45 1014.25 1013.86 1013.31 1012.67 1012.03 1011.50 1011.16 1011.10 1011.32 1011.80 1012.44 1013.13 1013.76 1014.23 1014.48 1014.52 1014.39 1014.20 1014.05 1014.04 1014.23 1014.61 1015.16 1015.79 1016.41 1016.94 1017.34 1017.60 1017.77 1017.89 1018.04 1018.27 1018.59 1018.97 1019.39 1019.77 1020.09 1020.30 1020.42 1020.49 1020.54 1020.63 1020.77 1020.98 1021.21 1021.42 1021.56 1021.59
1013.90 1013.61 1013.20 1012.69 1012.15 1011.66 1011.29 1011.13 1011.22 1011.56 1012.11 1012.78 1013.47 1014.08 1014.52 1014.75 1014.77 1014.66 1014.49 1014.37 1014.38 1014.56 1014.92 1015.42 1015.99 1016.54 1017.01 1017.36 1017.60 1017.76 1017.89 1018.05 1018.30 1018.63 1019.03 1019.45 1019.84 1020.16 1020.37 1020.50 1020.56 1020.62 1020.70 1020.83 1021.02 1021.23 1021.42 1021.54 1021.56
1013.28 1012.93 1012.52 1012.09 1011.69 1011.36 1011.18 1011.18 1011.39 1011.80 1012.37 1013.02 1013.67 1014.22 1014.61 1014.83 1014.87 1014.79 1014.67 1014.59 1014.63 1014.82 1015.16 1015.62 1016.12 1016.61 1017.03 1017.34 1017.56 1017.71 1017.86 1018.04 1018.29 1018.63 1019.02 1019.44 1019.82 1020.13 1020.34 1020.47 1020.54 1020.60 1020.67 1020.79 1020.95 1021.12 1021.28 1021.38 1021.40
1012.69 1012.31 1011.94 1011.62 1011.36 1011.21 1011.19 1011.31 1011.60 1012.03 1012.56 1013.14 1013.69 1014.17 1014.52 1014.73 1014.80 1014.77 1014.72 1014.71 1014.78 1014.98 1015.31 1015.72 1016.17 1016.60 1016.98 1017.27 1017.48 1017.64 1017.80 1017.99 1018.25 1018.57 1018.95 1019.33 1019.69 1019.99 1020.21 1020.35 1020.43 1020.48 1020.55 1020.65 1020.78 1020.92 1021.04 1021.12 1021.12
1012.21 1011.83 1011.54 1011.34 1011.24 1011.24 1011.34 1011.55 1011.85 1012.23 1012.67 1013.13 1013.58 1013.96 1014.27 1014.47 1014.59 1014.64 1014.67 1014.72 1014.84 1015.05 1015.35 1015.72 1016.12 1016.51 1016.85 1017.13 1017.36 1017.54 1017.72 1017.92 1018.16 1018.46 1018.80 1019.15 1019.48 1019.76 1019.98 1020.12 1020.22 1020.29 1020.36 1020.45 1020.55 1020.66 1020.75 1020.81 1020.81
1011.88 1011.55 1011.35 1011.29 1011.33 1011.46 1011.66 1011.89 1012.15 1012.44 1012.74 1013.04 1013.35 1013.64 1013.90 1014.12 1014.28 1014.41 1014.53 1014.65 1014.81 1015.02 1015.29 1015.62 1015.97 1016.32 1016.65 1016.94 1017.19 1017.40 1017.60 1017.81 1018.04 1018.31 1018.61 1018.91 1019.20 1019.46 1019.68 1019.84 1019.96 1020.06 1020.15 1020.24 1020.33 1020.41 1020.48 1020.52 1020.51
1011.70 1011.45 1011.38 1011.45 1011.62 1011.86 1012.10 1012.32 1012.50 1012.64 1012.77 1012.91 1013.07 1013.26 1013.47 1013.70 1013.92 1014.13 1014.33 1014.51 1014.70 1014.91 1015.15 1015.43 1015.74 1016.07 1016.39 1016.70 1016.99 1017.24 1017.47 1017.68 1017.90 1018.13 1018.38 1018.63 1018.89 1019.12 1019.34 1019.53 1019.69 1019.83 1019.95 1020.06 1020.15 1020.23 1020.29 1020.31 1020.31
1011.62 1011.48 1011.53 1011.74 1012.03 1012.34 1012.61 1012.78 1012.85 1012.84 1012.79 1012.75 1012.77 1012.86 1013.04 1013.28 1013.56 1013.84 1014.10 1014.33 1014.54 1014.74 1014.94 1015.18 1015.45 1015.76 1016.10 1016.44 1016.76 1017.06 1017.32 1017.55 1017.75 1017.95 1018.14 1018.35 1018.56 1018.79 1019.01 1019.23 1019.44 1019.62 1019.79 1019.92 1020.04 1020.13 1020.19 1020.21 1020.20
1011.55 1011.52 1011.71 1012.05 1012.45 1012.83 1013.09 1013.21 1013.17 1013.01 1012.79 1012.59 1012.48 1012.49 1012.63 1012.89 1013.21 1013.55 1013.87 1014.14 1014.35 1014.53 1014.71 1014.90 1015.15 1015.44 1015.79 1016.16 1016.53 1016.88 1017.17 1017.42 1017.61 1017.77 1017.93 1018.09 1018.27 1018.48 1018.72 1018.97 1019.22 1019.45 1019.66 1019.84 1019.99 1020.09 1020.16 1020.19 1020.18
1011.43 1011.52 1011.83 1012.29 1012.78 1013.21 1013.48 1013.55 1013.41 1013.12 1012.76 1012.43 1012.21 1012.16 1012.27 1012.54 1012.90 1013.29 1013.65 1013.94 1014.16 1014.32 1014.47 1014.63 1014.85 1015.15 1015.51 1015.92 1016.33 1016.72 1017.04 1017.30 1017.49 1017.63 1017.75 1017.88 1018.04 1018.24 1018.48 1018.76 1019.04 1019.32 1019.57 1019.78 1019.95 1020.08 1020.16 1020.20 1020.20
1011.22 1011.41 1011.82 1012.38 1012.95 1013.43 1013.71 1013.74 1013.53 1013.15 1012.68 1012.26 1011.97 1011.86 1011.96 1012.24 1012.63 1013.05 1013.44 1013.76 1013.98 1014.13 1014.25 1014.40 1014.60 1014.90 1015.28 1015.71 1016.16 1016.58 1016.94 1017.21 1017.40 1017.53 1017.63 1017.74 1017.88 1018.07 1018.32 1018.61 1018.92 1019.21 1019.49 1019.72 1019.90 1020.04 1020.14 1020.19 1020.21
1010.94 1011.19 1011.68 1012.31 1012.95 1013.46 1013.75 1013.77 1013.52 1013.08 1012.56 1012.08 1011.74 1011.61 1011.70 1011.99 1012.40 1012.85 1013.26 1013.59 1013.82 1013.97 1014.08 1014.21 1014.42 1014.71 1015.10 1015.56 1016.03 1016.48 1016.86 1017.15 1017.34 1017.47 1017.57 1017.66 1017.80 1017.99 1018.24 1018.52 1018.83 1019.13 1019.40 1019.63 1019.81 1019.95 1020.05 1020.12 1020.15
1010.65 1010.93 1011.46 1012.13 1012.80 1013.34 1013.65 1013.66 1013.41 1012.95 1012.40 1011.90 1011.54 1011.39 1011.48 1011.78 1012.20 1012.67 1013.10 1013.44 1013.68 1013.84 1013.96 1014.09 1014.29 1014.59 1014.99 1015.45 1015.94 1016.40 1016.80 1017.10 1017.31 1017.45 1017.56 1017.66 1017.80 1017.99 1018.23 1018.51 1018.80 1019.08 1019.32 1019.52 1019.67 1019.79 1019.89 1019.96 1020.01
1010.42 1010.70 1011.24 1011.92 1012.60 1013.15 1013.46 1013.48 1013.23 1012.77 1012.23 1011.72 1011.36 1011.22 1011.31 1011.60 1012.03 1012.51 1012.95 1013.32 1013.57 1013.75 1013.88 1014.02 1014.23 1014.53 1014.92 1015.38 1015.87 1016.33 1016.73 1017.05 1017.29 1017.45 1017.59 1017.72 1017.88 1018.08 1018.32 1018.57 1018.83 1019.06 1019.25 1019.40 1019.50 1019.59 1019.66 1019.73 1019.79
1010.34 1010.61 1011.12 1011.78 1012.44 1012.97 1013.27 1013.29 1013.05 1012.60 1012.07 1011.58 1011.23 1011.09 1011.17 1011.46 1011.89 1012.37 1012.82 1013.20 1013.48 1013.68 1013.84 1014.00 1014.21 1014.50 1014.88 1015.33 1015.80 1016.25 1016.66 1016.99 1017.26 1017.46 1017.64 1017.82 1018.02 1018.24 1018.48 1018.71 1018.93 1019.10 1019.22 1019.30 1019.35 1019.39 1019.43 1019.48 1019.55
1010.46 1010.70 1011.18 1011.78 1012.40 1012.88 1013.16 1013.17 1012.92 1012.49 1011.98 1011.50 1011.16 1011.02 1011.09 1011.37 1011.79 1012.26 1012.72 1013.12 1013.42 1013.65 1013.83 1014.00 1014.22 1014.51 1014.87 1015.28 1015.73 1016.16 1016.57 1016.92 1017.21 1017.47 1017.71 1017.94 1018.19 1018.44 1018.69 1018.91 1019.09 1019.21 1019.27 1019.27 1019.25 1019.23 1019.23 1019.26 1019.33
1010.78 1011.00 1011.43 1011.97 1012.51 1012.94 1013.16 1013.14 1012.89 1012.46 1011.96 1011.50 1011.16 1011.02 1011.08 1011.34 1011.74 1012.20 1012.66 1013.06 1013.39 1013.64 1013.85 1014.04 1014.26 1014.53 1014.87 1015.25 1015.66 1016.07 1016.47 1016.83 1017.16 1017.47 1017.77 1018.07 1018.37 1018.67 1018.93 1019.15 1019.30 1019.37 1019.37 1019.32 1019.23 1019.16 1019.12 1019.12 1019.17
1011.27 1011.47 1011.85 1012.32 1012.78 1013.12 1013.28 1013.21 1012.94 1012.52 1012.03 1011.58 1011.25 1011.10 1011.15 1011.38 1011.75 1012.19 1012.64 1013.05 1013.39 1013.67 1013.90 1014.11 1014.33 1014.59 1014.89 1015.24 1015.61 1016.00 1016.38 1016.75 1017.11 1017.47 1017.82 1018.19 1018.54 1018.88 1019.17 1019.40 1019.53 1019.57 1019.53 1019.43 1019.30 1019.19 1019.11 1019.09 1019.13
1011.84 1012.05 1012.37 1012.76 1013.13 1013.38 1013.47 1013.36 1013.07 1012.65 1012.17 1011.74 1011.42 1011.26 1011.29 1011.50 1011.83 1012.25 1012.68 1013.08 1013.44 1013.73 1013.98 1014.21 1014.44 1014.68 1014.96 1015.28 1015.62 1015.97 1016.34 1016.71 1017.08 1017.47 1017.87 1018.28 1018.68 1019.05 1019.37 1019.61 1019.74 1019.77 1019.72 1019.59 1019.44 1019.31 1019.21 1019.18 1019.20
1012.42 1012.61 1012.90 1013.21 1013.48 1013.65 1013.67 1013.52 1013.22 1012.80 1012.35 1011.94 1011.63 1011.48 1011.49 1011.67 1011.97 1012.35 1012.76 1013.16 1013.51 1013.82 1014.09 1014.33 1014.57 1014.82 1015.08 1015.38 1015.69 1016.02 1016.36 1016.72 1017.11 1017.51 1017.93 1018.36 1018.78 1019.17 1019.51 1019.75 1019.89 1019.93 1019.88 1019.77 1019.63 1019.50 1019.41 1019.38 1019.40
1012.90 1013.09 1013.32 1013.56 1013.76 1013.85 1013.81 1013.64 1013.33 1012.94 1012.52 1012.15 1011.87 1011.72 1011.73 1011.88 1012.14 1012.48 1012.86 1013.24 1013.59 1013.91 1014.20 1014.46 1014.72 1014.98 1015.25 1015.53 1015.83 1016.14 1016.47 1016.82 1017.19 1017.58 1018.00 1018.43 1018.85 1019.24 1019.57 1019.82 1019.98 1020.04 1020.02 1019.94 1019.84 1019.74 1019.68 1019.67 1019.70
1013.22 1013.39 1013.58 1013.75 1013.88 1013.91 1013.84 1013.66 1013.38 1013.03 1012.67 1012.34 1012.10 1011.96 1011.96 1012.08 1012.30 1012.60 1012.94 1013.29 1013.64 1013.96 1014.27 1014.56 1014.85 1015.13 1015.42 1015.72 1016.02 1016.33 1016.65 1016.99 1017.34 1017.71 1018.10 1018.50 1018.89 1019.26 1019.57 1019.82 1019.99 1020.08 1020.11 1020.08 1020.04 1020.00 1020.00 1020.02 1020.09
1013.38 1013.52 1013.65 1013.77 1013.84 1013.84 1013.76 1013.59 1013.35 1013.07 1012.77 1012.50 1012.30 1012.18 1012.17 1012.25 1012.43 1012.67 1012.96 1013.28 1013.60 1013.93 1014.25 1014.58 1014.90 1015.23 1015.56 1015.89 1016.22 1016.55 1016.88 1017.21 1017.54 1017.89 1018.24 1018.60 1018.94 1019.27 1019.56 1019.80 1019.98 1020.10 1020.18 1020.22 1020.25 1020.29 1020.35 1020.43 1020.53
Thickness
5660 5668 5675 5672 5660 5658 5670 5698 5721 5730 5738 5749 5754 5752 5747 5743 5744 5733 5762 5776 5773 5766 5759 5755 5752 5750 5749 5747 5745 5744 5743 5742 5741 5740 5739 5738 5737 5737 5736 5736 5735 5734 5732 5730 5728 5727 5725 5723 5722
5653 5663 5663 5656 5646 5647 5671 5701 5715 5726 5736 5745 5749 5748 5746 5745 5750 5753 5764 5770 5769 5762 5756 5752 5749 5747 5745 5744 5742 5741 5740 5739 5739 5738 5736 5735 5734 5733 5732 5732 5730 5729 5727 5726 5724 5722 5721 5720 5719
5645 5654 5647 5643 5644 5656 5679 5706 5717 5727 5734 5737 5738 5743 5738 5736 5746 5753 5763 5767 5764 5758 5753 5749 5746 5744 5742 5741 5739 5738 5737 5736 5736 5735 5733 5732 5731 5730 5728 5727 5726 5725 5723 5722 5720 5719 5717 5716 5716
5635 5638 5639 5637 5646 5672 5691 5708 5716 5716 5723 5730 5731 5728 5730 5736 5742 5752 5760 5761 5758 5754 5750 5744 5742 5740 5738 5737 5736 5735 5734 5733 5733 5732 5731 5729 5728 5726 5725 5723 5722 5721 5719 5718 5717 5715 5714 5713 5713
5626 5625 5621 5628 5649 5677 5693 5701 5706 5707 5713 5721 5725 5719 5715 5728 5742 5748 5752 5754 5752 5749 5744 5740 5738 5736 5735 5733 5732 5731 5730 5730 5729 5729 5728 5726 5724 5723 5721 5720 5719 5717 5716 5715 5714 5712 5711 5710 5709
5610 5614 5611 5622 5649 5675 5687 5695 5696 5700 5708 5718 5720 5713 5706 5722 5732 5738 5745 5748 5747 5744 5739 5735 5733 5732 5731 5729 5728 5727 5726 5726 5726 5725 5724 5723 5721 5720 5718 5717 5716 5714 5713 5712 5710 5709 5708 5707 5706
5601 5606 5612 5631 5647 5664 5679 5689 5688 5692 5699 5709 5717 5705 5701 5713 5723 5731 5737 5741 5741 5738 5735 5731 5729 5728 5727 5725 5724 5723 5722 5722 5722 5721 5720 5719 5718 5717 5715 5714 5713 5711 5710 5709 5707 5706 5705 5704 5703
5605 5603 5611 5627 5642 5657 5676 5682 5686 5688 5692 5706 5710 5698 5696 5707 5718 5723 5728 5731 5733 5732 5731 5729 5727 5725 5723 5721 5720 5719 5719 5718 5717 5717 5717 5716 5715 5714 5713 5711 5710 5708 5707 5706 5705 5703 5702 5702 5701
5599 5589 5601 5623 5638 5654 5669 5669 5677 5687 5689 5696 5698 5698 5704 5708 5711 5712 5715 5719 5722 5724 5726 5726 5725 5723 5721 5719 5717 5716 5715 5714 5713 5713 5713 5713 5713 5712 5710 5709 5707 5706 5704 5703 5702 5701 5700 5700 5699
5583 5584 5607 5634 5645 5649 5658 5662 5667 5671 5674 5680 5684 5690 5697 5701 5702 5703 5706 5708 5712 5716 5720 5723 5723 5722 5720 5717 5714 5713 5713 5712 5711 5711 5711 5711 5712 5711 5709 5706 5705 5703 5702 5701 5700 5699 5699 5698 5697
5582 5593 5616 5630 5640 5644 5646 5653 5663 5661 5660 5672 5677 5682 5688 5692 5695 5698 5701 5705 5708 5712 5715 5718 5719 5719 5718 5715 5713 5713 5712 5711 5711 5710 5710 5710 5710 5709 5707 5704 5703 5702 5701 5699 5698 5698 5697 5697 5697
5581 5599 5613 5622 5631 5633 5634 5642 5650 5655 5661 5674 5681 5683 5683 5685 5689 5694 5697 5702 5705 5707 5710 5713 5715 5715 5714 5713 5712 5711 5711 5709 5710 5709 5709 5708 5708 5707 5706 5704 5702 5701 5700 5699 5698 5697 5697 5697 5696
5577 5593 5606 5614 5620 5625 5628 5630 5636 5645 5660 5669 5674 5677 5678 5681 5685 5690 5695 5699 5701 5702 5705 5708 5710 5710 5710 5710 5709 5709 5708 5707 5708 5707 5706 5706 5705 5703 5704 5703 5702 5701 5700 5698 5697 5696 5696 5695 5694
5577 5588 5597 5604 5610 5616 5618 5622 5625 5636 5654 5660 5664 5667 5672 5677 5682 5685 5688 5692 5695 5698 5701 5704 5705 5706 5706 5706 5705 5705 5705 5705 5705 5704 5703 5703 5702 5701 5700 5700 5699 5698 5697 5696 5695 5694 5693 5692 5691
5571 5575 5582 5593 5601 5607 5608 5607 5618 5632 5644 5649 5654 5659 5666 5672 5677 5681 5685 5688 5692 5694 5697 5699 5701 5702 5701 5701 5702 5702 5702 5702 5702 5701 5700 5699 5699 5698 5696 5696 5695 5695 5694 5693 5691 5690 5690 5688 5687
5559 5560 5564 5582 5594 5600 5597 5596 5617 5630 5633 5637 5646 5652 5658 5665 5671 5677 5683 5686 5690 5692 5693 5695 5697 5697 5697 5697 5697 5697 5698 5698 5698 5697 5696 5696 5695 5694 5693 5691 5691 5690 5690 5689 5687 5685 5684 5683 5682
5544 5550 5560 5575 5589 5592 5591 5595 5614 5623 5627 5632 5640 5647 5653 5659 5666 5672 5678 5682 5686 5688 5690 5691 5692 5692 5693 5693 5693 5693 5693 5694 5694 5693 5693 5692 5691 5690 5688 5687 5686 5686 5685 5684 5682 5681 5679 5677 5676
5541 5550 5561 5569 5582 5586 5585 5594 5608 5617 5623 5629 5636 5642 5648 5653 5661 5668 5672 5677 5680 5683 5685 5686 5687 5687 5688 5688 5687 5688 5688 5688 5688 5688 5687 5687 5686 5685 5683 5682 5680 5680 5679 5677 5676 5674 5674 5672 5670
5547 5553 5559 5569 5581 5581 5583 5590 5602 5611 5615 5623 5631 5639 5644 5651 5659 5664 5667 5670 5673 5676 5678 5680 5680 5681 5682 5681 5681 5680 5679 5681 5681 5682 5681 5680 5679 5678 5677 5676 5674 5673 5672 5671 5670 5668 5667 5665 5664
5540 5546 5555 5566 5576 5578 5579 5585 5600 5610 5615 5622 5628 5636 5642 5647 5651 5654 5658 5662 5665 5667 5670 5673 5675 5676 5677 5677 5677 5677 5676 5675 5675 5674 5674 5673 5672 5671 5670 5669 5667 5666 5665 5664 5662 5661 5659 5658 5657
5538 5545 5554 5557 5567 5575 5576 5577 5592 5607 5615 5622 5630 5636 5642 5645 5645 5647 5650 5655 5658 5660 5663 5666 5668 5670 5671 5671 5670 5669 5667 5667 5665 5665 5665 5664 5663 5662 5661 5660 5659 5658 5657 5655 5654 5653 5651 5649 5649
5537 5552 5558 5559 5556 5558 5569 5565 5588 5602 5609 5618 5624 5630 5636 5642 5645 5645 5647 5649 5651 5654 5656 5658 5659 5661 5663 5664 5662 5660 5658 5657 5658 5657 5656 5655 5654 5653 5652 5651 5650 5649 5648 5647 5646 5645 5643 5641 5639
5542 5556 5559 5560 5557 5560 5568 5567 5585 5604 5605 5614 5622 5627 5633 5638 5641 5643 5644 5645 5646 5647 5648 5649 5651 5652 5654 5655 5655 5653 5652 5651 5650 5648 5647 5646 5645 5643 5641 5640 5640 5639 5638 5637 5636 5635 5634 5632 5631
5543 5548 5551 5554 5552 5547 5565 5566 5579 5600 5610 5617 5623 5626 5630 5634 5637 5639 5640 5640 5639 5638 5638 5639 5641 5642 5644 5645 5645 5644 5643 5642 5640 5638 5636 5636 5635 5633 5632 5630 5629 5628 5627 5626 5625 5625 5624 5623 5622
5537 5534 5529 5529 5532 5544 5571 5570 5582 5606 5615 5617 5618 5621 5625 5628 5629 5631 5632 5631 5630 5629 5628 5629 5630 5632 5634 5634 5635 5635 5634 5633 5630 5628 5627 5625 5624 5622 5621 5619 5618 5617 5617 5616 5615 5614 5614 5613 5612
5536 5539 5534 5534 5533 5547 5568 5565 5585 5604 5610 5612 5614 5617 5619 5621 5622 5624 5626 5625 5623 5621 5620 5620 5621 5622 5623 5623 5624 5624 5623 5621 5619 5617 5616 5614 5612 5611 5609 5608 5607 5606 5605 5604 5604 5604 5603 5603 5602
5533 5534 5543 5544 5553 5550 5555 5571 5589 5599 5601 5604 5606 5608 5610 5612 5616 5617 5617 5618 5615 5613 5611 5612 5612 5612 5612 5612 5612 5611 5610 5608 5606 5604 5603 5602 5600 5599 5597 5596 5596 5595 5593 5593 5593 5593 5592 5591 5590
5537 5540 5537 5536 5539 5545 5558 5566 5573 5583 5589 5593 5595 5597 5600 5604 5606 5608 5608 5608 5607 5605 5603 5603 5603 5603 5603 5602 5600 5599 5597 5596 5594 5592 5590 5589 5587 5586 5585 5584 5583 5583 5581 5581 5581 5580 5579 5579 5577
5532 5535 5539 5540 5543 5541 5547 5558 5583 5583 5586 5586 5587 5590 5593 5595 5596 5597 5598 5598 5598 5596 5594 5593 5592 5592 5591 5590 5588 5586 5585 5583 5581 5579 5578 5576 5575 5574 5572 5571 5571 5570 5569 5569 5568 5567 5567 5566 5565
5534 5537 5538 5531 5533 5545 5542 5550 5579 5578 5581 5581 5581 5584 5587 5589 5589 5589 5589 5588 5586 5585 5584 5584 5583 5581 5580 5578 5576 5575 5572 5570 5568 5567 5565 5563 5562 5561 5559 5558 5558 5557 5556 5556 5555 5554 5553 5552 5551